timestamp,gas_concentrations,,corrected_fluxes_and_quality_flags,,,,,,,,,,storage_terms,,,turbulence,,,footprint,,
ISOdate,CO2_1_1_1,H2O_1_1_1,Tau_1_1_1,QcTau_1_1_1,H_1_1_1,QcH_1_1_1,LE_1_1_1, QcLE_1_1_1,Fc_1_1_1, QcFc_1_1_1,E_1_1_1, QcE_1_1_1,Sa_1_1_1,Sw_1_1_1,Sc_1_1_1,ustar_1_1_1,MO_length_1_1_1,ZL_1_1_1,Fetchmax_1_1_1,Fetch70_1_1_1,Fetch90_1_1_1
yyyymmddHHMM,[µmol+1mol_a-1],[mmol+1mol_a-1],[kg+1m-1s-2],[#],[W+1m-2],[#],[W+1m-2],[#],[µmol+1s-1m-2],[#],[mmol+1s-1m-2],[#],[W+1m-2],[W+1m-2],[µmol+1s-1m-2],[m+1s-1],[m],[#],[m],[m],[m]
201412270030,405.18196538439969,4.7406053600268638,2.50007143026051704E-002,1,-1.4461893305581135,1,-9.2538359423394532,1,-1.0416731035408420,2,-0.20490122146354647,1,-9999.,-9999.,-9999.,0.14317977871366488,170.32787906730616,0.12681423686057067,199.28408613232563,1646.0000000000000,7460.0000000000000
201412270100,406.10350881076340,4.7183728923831305,2.47825725115384116E-002,0,-11.620012478862360,0,9.9191860028958949,1,-1.9585801878165245,1,0.21962141876047922,1,-1.4019118680605664,-0.82358857128836271,0.75585259181275088,0.14254903547492548,20.917072724218940,1.0326492757751102,203.47700061070884,1826.0000000000000,8826.0000000000000
201412270130,405.05245166441870,4.6905805799638944,4.10727285176997886E-002,0,-9.0986971320752144,0,1.9591715340875806,2,-1.5941128891932492,0,4.33729644638228759E-002,2,-3.0279212514951968,-1.0300418835670480,-0.86238893378217463,0.18347961040185526,56.958965162680002,0.37922037274217379,148.80611487627593,1373.0000000000000,6784.0000000000000
201412270200,405.50263974798696,4.6766478201869095,2.71797960829466903E-002,1,-7.6940152047270187,1,3.4967846211453999,1,-1.3718446281258174,1,7.74091919504771159E-002,1,-1.3386579810982280,-0.51640565002143490,0.36937838799768191,0.14925629692586800,36.254154192817410,0.59579379193679671,226.37396275060331,2191.0000000000000,-9999.
201412270230,405.01740922422329,4.6551003819795227,4.44796155679333532E-002,1,-3.1809056955778270,1,1.1056010321017322,1,-0.41837239965021844,1,2.44730989495383321E-002,1,-1.9281923684580724,-0.79865493090671458,-0.39810916592861018,0.19094136231781769,183.54851991030046,0.11768005544558925,172.07997463303340,1387.0000000000000,6172.0000000000000
201412270300,406.44586737748608,4.6448071488452296,6.78175380551718915E-002,0,0.52219070055079486,0,4.9690482276444587,1,-0.80127978884661233,0,0.10999090187125250,1,-0.40626129738832240,-0.38143752851097579,1.1717168728478551,0.23579745792229320,-2105.2269164602694,-1.02601766256714324E-002,86.136549311608889,157.48508398500022,235.94135334915489
201412270330,406.58653546229999,4.6460230647226473,7.75706180891858055E-002,0,-2.1948177531589366,0,-6.5270086281004307,2,0.39539866166591020,2,-0.14448263913864612,2,1.0432579857997086,4.50445294357855880E-002,0.11535477557176349,0.25221703370094373,612.91980130860554,3.52411521929675564E-002,101.73705784661668,186.00778911399820,278.67356314977093
201412270400,406.09745689783455,4.6381835058716900,4.66691500957229152E-002,0,-5.1325490514751744,0,-6.0887779704028819,2,0.62159527636544920,2,-0.13477184779183876,2,-1.8870734173616186,-0.29039127921989039,-0.40099561099365688,0.19564988439915135,122.30283717089134,0.17661078434197522,142.18192320037994,1213.0000000000000,5638.0000000000000
201412270430,406.84856013638921,4.6251565768250815,3.64041211174064641E-002,0,-5.5420484870152285,0,3.1228210197157589,1,-0.85925621779777150,0,6.91193615255364935E-002,1,-0.95557085119987106,-0.48260601676795922,0.61588970235340901,0.17278963790790025,78.018357271560987,0.27685791851289809,149.57102219632026,1356.0000000000000,6611.0000000000000
201412270500,408.91116485048042,4.6227020177008127,5.79264076743721684E-002,0,-0.85080106038043890,0,-13.419519729851796,2,-0.68838102636282905,0,-0.29702931447615405,2,0.56501083014795983,-9.08722547170125322E-002,1.6901924288085743,0.21803293284015968,1020.6509179259597,2.11629653396999302E-002,100.89578633871056,184.46967648775990,276.36919015484875
201412270530,408.93580746635809,4.5969793270275829,6.62778202334760175E-002,0,3.1220843963045657,0,4.3693253369753391,1,0.72556632598371507,2,9.66998847399888339E-002,1,-2.9515250950077085,-0.95214164116412503,2.01875467122370825E-002,0.23325313819938517,-340.36452532087526,-6.34613727139654721E-002,87.851171284845464,160.61995980270723,240.63796857324670
201412270600,406.98194631137306,4.6015063787017993,0.13007160530847411,0,2.3991109181496326,0,1.1810172293176151,1,0.37561850354071846,2,2.61377263406098563E-002,1,0.0000000000000000,0.16752265875071934,-1.6001598795090974,0.32681240948565532,-1218.0393725529966,-1.77334169048465537E-002,101.08279468115512,184.81158738100029,276.88143497724502
201412270630,407.57533732046466,4.5901337238702542,4.35060017906137089E-002,1,-0.23363694431526030,2,3.7047274280074500,1,-0.92262815010885413,1,8.19902783471613689E-002,1,-0.31821699194879643,-0.42096292655530893,0.48610384204054008,0.18898256243526096,2418.8452858197193,8.92988076857507973E-003,189.65096011891080,1115.0000000000000,3905.0000000000000
201412270700,407.92059143338383,4.5790883295459164,0.14347173343066263,0,-4.7173995352197320,0,-4.3731411359698704,1,0.89836838757783122,0,-9.67775348002897218E-002,1,-1.4558418465746303,-0.40887360530499350,0.28283149763080029,0.34318555580423038,717.29565113028127,3.01131060337027287E-002,97.242279756733794,177.78990122974619,266.36166960392433
201412270730,411.47511635958875,4.6123578211778611,9.83028751806386131E-002,0,-8.8081046698301950,0,-1.3766518885601486,1,1.8463272961321233,1,-3.04670668508875246E-002,1,1.4789602289800445,1.2308534739075807,2.9103704060799465,0.28414680688144395,218.00925154854457,9.90783640903894619E-002,85.113903648015807,155.61536155584611,233.14016844224710
201412270800,410.38688989196430,4.6067700715627069,0.10340239968495440,0,-4.8625835279263141,0,-5.9340780854565551,1,0.81517372584269143,0,-0.13133080576902570,1,0.39739503370887208,-0.20663290551379496,-0.89062561522452233,0.29148749047412481,426.19105165849265,5.06814958126059062E-002,91.628285635146213,167.52572948389289,250.98406995165848
201412270830,410.46035484189866,4.5934308915193531,9.63454889477241977E-002,0,-4.7168001499611369,0,28.492914899262658,1,-4.3047877189646258,1,0.63056815625888496,1,-1.0568995769995462,-0.49322001966109486,6.01155607939650033E-002,0.28138685042910078,395.16101107402579,5.46612631172604668E-002,83.875638356849734,153.35141767913549,229.74836797034649
201412270900,409.47484814851248,4.5664307033310996,0.24169098503713254,0,-2.6018904355600383,0,4.5936341319701128,1,-0.81398729396740799,1,0.10165393443116690,1,-1.5897557364109780,-0.99867982166148106,-0.80665318399406982,0.44561092699660587,2845.0895014132579,7.59202829621722156E-003,108.91653875792491,199.13416999786418,298.33927365357204
201412270930,408.57727515377928,4.5339108393670999,0.42954085809862319,0,-0.45624432567054013,2,8.3452495665630675,0,-1.0441110690827451,0,0.18466137421924894,0,-1.8048806463231237,-1.2032729520666576,-0.73488933717624794,0.59396755699500048,38424.455016084823,5.62142000217258678E-004,120.00036115136390,219.39893233691362,328.69958036064855
201412271000,409.18883775051938,4.5265180997637859,0.29887041892045901,0,6.5710356290238350,0,45.015149681016325,0,-5.0929510228916204,0,0.99606615189165137,0,-0.42130673393881946,-0.27348191142397060,0.50060317202968319,0.49550847366067341,-1548.6187377412775,-1.39479133718247959E-002,111.66405550460604,204.15750688631971,305.86514768430760
201412271030,410.33409353723749,4.5295120247287004,0.20240580402150690,0,9.2903913786850687,0,1.9296678497107900,2,-7.75922163496194917E-002,2,4.26991699073576841E-002,2,0.42930611945380937,0.11076618736982281,0.93757422939375712,0.40775200375062032,-610.43075732745558,-3.53848487166137926E-002,95.546107223612864,174.68875687271773,261.71559025460584
201412271100,409.61906387213469,4.5231240667825592,0.38406550909939152,0,16.391272584365421,0,20.256032715132825,0,0.34186593209066318,1,0.44822172486205331,0,9.53777667854631417E-002,-0.23627605977358224,-0.58522146143472153,0.56174632833769977,-904.51950885196129,-2.38800819535835776E-002,116.00166527677354,212.08804095952399,317.74653285848467
201412271130,407.96549551624167,4.5503510267158349,0.38090889917126936,0,24.578687027845323,0,30.096630769360800,1,-2.0234154355434297,1,0.66602530901333712,1,1.9938535949079086,1.0064073338655366,-1.3526008179258222,0.55959617007967910,-596.20592314397857,-3.62290932738415436E-002,122.21176541198334,223.44208461654065,334.75695923433784
201412271200,406.72295098127472,4.5493058236287487,0.39092624808673337,0,28.565801661975570,0,33.052407064979427,0,-1.4870229552725143,1,0.73149480358382346,0,2.0482198505682119,-3.86079722967558811E-002,-1.0157724397817760,0.56707828763458057,-533.73381600360779,-4.04696111663533711E-002,119.33000135993252,218.17330083788733,326.86336103580658
201412271230,406.89980228438100,4.6048600121217111,0.21309942566467729,0,41.671035735858553,0,12.532119486046257,1,2.7543624582071846,2,0.27739037175274839,1,3.4036039636068041,2.0504757819796282,0.14448173761109817,0.41882365027055257,-147.39081139331108,-0.14654916270431942,104.57989641598871,191.20540469566873,286.46053842067852
201412271300,406.07375833971838,4.6010434950486570,0.49262645090593515,0,47.889004588360926,0,38.721783398109210,0,0.26923858683396062,0,0.85705088302896182,0,-0.90460211998336160,-0.14089387940266770,-0.67496200331720291,0.63674107583308870,-450.68267860067613,-4.79272912530514933E-002,115.06052157692338,210.36733011381006,315.16859445703591
201412271330,405.68740979535255,4.4982274019249369,0.42330662299606486,0,22.346316509311947,0,27.252907799707366,0,-0.46193012870716044,0,0.60306437277197544,0,-5.8303061592025820,-3.8004713673331456,-0.31601410942674951,0.58992604205007360,-768.13479606654130,-2.81200644868701624E-002,108.80657136050047,198.93311452306972,298.03805591522558
201412271400,406.11898371042042,4.4658150357343418,0.48776576320041720,0,31.405877137949521,0,28.242604004139281,0,-2.0763744849159735,0,0.62490122340023813,0,-2.5672077732137879,-1.1989395918723667,0.35322252490725292,0.63305292890570430,-675.49668143367546,-3.19764709341815237E-002,108.61510836912832,198.58305911085233,297.51360911927611
201412271430,410.37348905550488,4.3564594164420836,0.41211906493198330,0,6.7517252732070920,2,66.968246946204800,1,-20.917681795639311,0,1.4813644088455988,1,-6.6147930581070140,-4.0523516463017577,3.4874506404961778,0.58143855734861905,-2435.3344164474106,-8.86941844788175122E-003,106.22721443778435,194.21722742464738,290.97279769464666
201412271500,422.72071087216062,4.2899928549683750,0.56242694843565799,0,18.082298101384563,0,-9999.,-9999.,-14.560881252052111,1,-9999.,-9999.,-5.4848573876140128,704.88664008072817,10.136678879641233,0.67871328212260862,-1447.0186332782844,-1.49272438538432996E-002,114.48042117871937,209.30672157236043,313.57960959376379
201412271530,406.67260518532095,4.1589984207019084,0.51963465584845447,0,-17.799724083637368,2,347.70262662428360,1,-8.3093599263356559,1,7.6872446753571397,1,-7.9533365404900458,-4.8723721603833123,-13.196966617874990,0.65182290305969759,1302.4703447102709,1.65838708633361115E-002,120.22499480522237,219.80963429939621,329.31488674014366
201412271600,406.14248339290128,4.0600804614395747,0.37989514343076330,0,-2.8544818844223663,2,59.949265576543873,1,-4.5318039280382756,1,1.3251327943575182,1,-5.1002254971672736,-3.6841437803836317,-0.43642800977986812,0.55700743287404020,5069.2320896762176,4.26100040753502746E-003,116.51828039857099,213.03257816811202,319.16162171416397
201412271630,408.11239008439367,4.0034281358804620,0.59039331435072961,0,15.859366747094928,0,-9999.,-9999.,-4.6556849863789846,0,-9999.,-9999.,-8.9351521532017788,603.94158696107445,1.6242668250182146,0.69383754389555508,-1763.6833234688704,-1.22470965805337485E-002,115.10855010732398,210.45514158529650,315.30015204266772
201412271700,405.38333761901782,3.8553028665806002,0.53793232648939970,0,19.749124886433059,1,97.224904159772578,1,1.3322534553488539,2,2.1473930478939960,1,-11.103700813161334,-5.5413198757465612,-2.2549139421158224,0.66158482885838255,-1228.1262694117436,-1.75877680805135127E-002,121.43373788751404,222.01960216265886,332.62582130818180
201412271730,405.21680173182750,3.7599270606761759,0.36854985571461546,0,3.9105179487412052,1,10.504104811025853,0,0.64081005775539035,0,0.23195917278471084,0,-4.7945315274196902,-3.5723297486436110,-0.13774430727923351,0.54731597862087222,-3512.3362928505853,-6.14975281380861390E-003,101.86982676398677,186.25053303942508,279.03723778379504
201412271800,405.16106432156732,3.6238550606059250,0.37564710389354838,0,6.3335717535012526,2,14.825924036124791,1,0.95402975869236117,1,0.32733113495135407,1,-5.1198449401198074,-5.1018184843552330,-4.61390413163386068E-002,0.55232011556410276,-2228.6279495874378,-9.69206188228886704E-003,116.88751016288801,213.70764793707698,320.17299924189138
201412271830,404.82349895960584,3.4574666959569544,0.29039062146012329,0,6.1186505867618060,1,11.140907027774839,0,1.2048231555087161,0,0.24587795818584199,0,-9.8237998780341034,-6.2526099000445976,-0.27995956196123573,0.48514395751374523,-1563.7495081838924,-1.38129539846096015E-002,106.76828598400080,195.20647877704982,292.45487648574374
201412271900,404.35575240539168,3.2262852831255229,0.49291951175859938,0,-12.291212329818316,0,14.016012436497693,0,0.56779506775820621,0,0.30915631542205607,0,-14.523747337071894,-8.7153156082556098,-0.38895060436508555,0.63121181511961266,1714.9229483279228,1.25953180701560644E-002,105.66100290660164,193.18201216173958,289.42185658989143
201412271930,404.05143805749577,2.9976255253042741,0.36778598025931575,0,-23.823806945718495,0,6.8476030412446560,0,0.26356315439176425,0,0.15092189518422705,0,-20.203265453421846,-8.6567866678869638,-0.25392360727040275,0.54427389446787955,567.33037993229038,3.80730536633308997E-002,106.18910994755596,194.14756026370603,290.86842359253762
201412272000,404.17919247007262,2.8606772682423718,0.26919395412037617,0,-18.989282215723403,2,1.2438360209000106,2,-0.16709828814314920,1,2.73960544583525360E-002,2,-17.223750158063449,-5.2034477500143739,0.10691422427144598,0.46494528503473415,443.77898992365488,4.86728765679419334E-002,98.711593138113514,180.47627470437627,270.38634659025945
201412272030,404.36598814280177,2.8047391890564244,0.28912639334813900,0,-50.496238371425925,0,-3.5424974940131975,1,-0.59961236145476970,1,-7.79899795286714825E-002,1,-11.694865038974440,-2.1300515616986382,0.15659526746960861,0.48142911088226320,185.25849353957065,0.11659384456446693,107.11524039265819,195.84082209150873,293.40523836328941
201412272100,404.47698080965210,2.7229401522566228,0.27882381136039242,0,-28.281038760852280,0,-1.4333587451860621,0,0.10656084487539297,0,-3.15412336143162178E-002,0,-12.312575426735744,-3.1223184928857459,9.32281513486469537E-002,0.47230897917464065,312.33861478530343,6.91557142713445649E-002,106.71733829635276,195.11333015509766,292.31532287615812
201412272130,404.54324240239583,2.6400891952422327,0.50369077708818544,0,-39.017622364080744,0,-1.6985908028487895,0,0.63066857259438169,0,-3.73648336046080790E-002,0,-8.9740033430355748,-3.1681051556199531,5.57363101415151302E-002,0.63434377652354390,548.48317281905463,3.93813357827950544E-002,116.19382137814931,212.43936359788415,318.27287819011485
201412272200,404.48080896023276,2.5584054137113266,0.37519417361024376,0,-26.883291072865656,0,-1.6339805597231414,0,0.81707456441439730,0,-3.59321568627299845E-002,0,-8.2917966433550045,-3.1289937130131911,-5.25923451422894983E-002,0.54707838508100293,510.69398030161295,4.22953879096894109E-002,106.70950940454263,195.09901644397175,292.29387832859186
201412272230,404.68464069418582,2.5039469930124438,0.39652311040894983,0,-24.159914321403743,0,0.79634697776322227,0,0.66591821344086921,0,1.75079550385939982E-002,0,-6.2202754366790165,-2.0884646636170876,0.17185690027189443,0.56215532726926842,616.51466027028698,3.50356632079605670E-002,108.45327100816634,198.28716879963486,297.07031151479822
201412272300,404.88523119335559,2.4698257856516634,0.37332141229335986,0,-10.044655298050962,0,1.0981813593084127,1,0.64672567127910141,0,2.41392839680214001E-002,1,-4.9887336628266095,-1.3099335288602885,0.16927216290358321,0.54521867087396780,1352.9315765462538,1.59653306748447701E-002,113.23325181769023,207.02649821613269,310.16341949503698
201412272330,404.82685751254093,2.4164770004493792,0.40145646629463250,0,-29.176306848445030,0,-1.4565433123164364,1,0.62429430904160244,0,-3.20089378854835419E-002,1,-6.1827493282912993,-2.0506596716555237,-4.93098856410277286E-002,0.56509732045828021,518.62374318281081,4.16486909516330592E-002,110.50833175064339,202.04447526489002,302.69944127063127
201412280000,404.75281919078128,2.3608616554870800,0.32499296851460363,0,-15.359895516602700,0,1.3519115729877385,1,0.74092670355345902,0,2.97025949971931325E-002,1,-6.1467632577239053,-2.1400524383713129,-6.25939636700569568E-002,0.50822607748760362,716.55951214614151,3.01440419586457252E-002,107.80142265591282,197.09538211534641,295.28479788976625
